Regional Weather Roundup
Issued by NWS

Home | Current Version | Previous Version | Text Only | Print | Product List | Glossary Off
Versions: 1 2 3 4 5 6 7 8 9 10 11 12 13 14 15 16 17 18 19 20 21 22 23 24 25 26 27 28 29 30 31 32 33 34 35 36 37 38 39 40 41 42 43 44 45 46 47 48 49 50

000
ASUS44 KOUN 052110
RWROK

WEATHER ROUNDUP FOR OKLAHOMA
NATIONAL WEATHER SERVICE NORMAN OK
400 PM CDT SUN JUL 05 2015

NOTE: "FAIR" INDICATES FEW OR NO CLOUDS BELOW 12,000 FEET WITH NO
      SIGNIFICANT WEATHER AND/OR OBSTRUCTIONS TO VISIBILITY.

OKZ001>007-009>012-014-015-017-052200-
NORTHWEST OKLAHOMA AND THE PANHANDLE

CITY           SKY/WX    TMP DP  RH WIND       PRES   REMARKS
GAGE           SUNNY     94  63  35 S22G30    29.90F HX  95
GUYMON         MOSUNNY   95  56  26 S20G36    29.88F HX  93
$$

OKZ016-021>023-033>039-044-045-052200-
SOUTHWEST OKLAHOMA

CITY           SKY/WX    TMP DP  RH WIND       PRES   REMARKS
LAWTON/REGL    PTSUNNY   94  68  42 S15G25    29.91F HX  98
LAWTON/FT SILL MOSUNNY   91  72  52 S17       29.91F HX  98
FREDERICK      PTSUNNY   95  67  39 S22       29.89F HX  99
CLINTON        MOSUNNY   96  65  35 S20G26    29.93F HX  98
HOBART         PTSUNNY   91  67  44 S18G26    29.92F HX  94
ALTUS AFB      MOSUNNY   94  69  44 SE16G29   29.90F HX  99
$$

OKZ018>020-024>031-052200-
CENTRAL OKLAHOMA

CITY           SKY/WX    TMP DP  RH WIND       PRES   REMARKS
OKLAHOMA CITY  MOSUNNY   91  72  53 S15G24    29.93F HX  98
OKC/WILEY POST MOSUNNY   92  72  51 S15G24    29.92F HX  99
STILLWATER     MOSUNNY   94  71  47 S16G26    29.91F HX 101
GUTHRIE        MOSUNNY   93  72  50 S14       29.91F HX 101
$$

OKZ008-013-054>072-052200-
NORTHEAST OKLAHOMA

CITY           SKY/WX    TMP DP  RH WIND       PRES   REMARKS
TULSA          PTSUNNY   93  74  53 S12G21    29.91F HX 103
TULSA/JONES    MOSUNNY   95  73  48 S15       29.91F HX 104
PONCA CITY     SUNNY     97  68  38 S12G18    29.88F HX 102
BARTLESVILLE   MOSUNNY   95  74  50 S10G20    29.91F HX 105
MUSKOGEE       SUNNY     90  76  63 S14       29.95F HX 101
$$

OKZ032-040>043-046>053-073>077-052200-
SOUTH CENTRAL/SOUTHEAST OKLAHOMA

CITY           SKY/WX    TMP DP  RH WIND       PRES   REMARKS
ARDMORE/DWNTWN SUNNY     90  66  45 S9G17     29.95F HX  92
MCALESTER      SUNNY     90  73  57 S9        29.96F HX  98
$$




USA.gov is the U.S. government's official web portal to all federal, state and local government web resources and services.